Tracking 19628 objects as of 26-May-2019
HD Live streaming from Space Station
objects crossing your sky now
Watch Starlink satellites crossing your sky!

HETE 2

Track HETE 2 now!
10-day predictions
HETE 2 is classified as:


NORAD ID: 26561
Int'l Code: 2000-061A
Perigee: 537.2 km
Apogee: 562.1 km
Inclination: 1.9 °
Period: 95.5 minutes
Semi major axis: 6920 km
RCS: 0.631 m2 (medium)
Launch date: October 9, 2000
Source: United States (US)
Launch site: Kwajalein (KWAJ)

Designed to detect and localize gamma-ray bursts.
aabbcc
Your satellite tracking list
Your tracking list is empty




NASA's NSSDC Master Catalog

Two Line Element Set (TLE):
1 26561U 00061A   19146.50216652  .00001120  00000-0  14073-4 0  9998
2 26561   1.9483 121.4061 0017985 184.0128 175.9770 15.07938887 21933
Source of the keplerian elements: AFSPC